[[{"header":{"parameterUnit":"m.s-1","parameterCategory":1,"la1":30.2991,"la2":30.254,"lo1":-89.0895,"lo2":-89.0444,"dy":0.0017,"dx":0.0017,"nx":28,"ny":28,"refTime":"2025-04-22T09:00:00:Z","depth":0,"parameterNumber":2,"parameterNumberName":"U-component_of_WINDS"},"data":[0,0,0,0,0,0,0,0,0,0,0,0,0,0,0,0,0,0,0,0,0,0,0,0,0,0,0,0,0,0,0,0,0,0,0,0,0,0,0,0,0,0,0,0,0,0,0,0,0,0,0,0,0,0,0,0,0,0,-0.5697,-0.5697,0,-0.5712,-0.5712,-0.5712,-0.572,-0.572,-0.572,-0.572,-0.5735,-0.5735,-0.5736,0,0,0,0,0,0,0,0,0,0,0,0,0,-0.5678,-0.5678,-0.5697,-0.5697,-0.5698,-0.5712,-0.5712,-0.5712,-0.572,-0.572,-0.572,-0.572,-0.5735,-0.5735,-0.5736,0,0,0,0,0,0,0,0,0,0,0,0,0,-0.5689,-0.5678,-0.5697,-0.5703,-0.5704,-0.5712,-0.5712,-0.5712,-0.572,-0.572,-0.572,-0.572,-0.5735,-0.5735,-0.5736,-0.5739,0,0,-0.5738,-0.5738,0,0,0,0,0,0,0,0,-0.5688,-0.5689,-0.5702,-0.5703,-0.5704,-0.5714,-0.5711,-0.5721,-0.572,-0.5714,-0.572,-0.572,-0.5728,-0.5729,-0.5732,-0.5739,-0.574,-0.5738,-0.5738,-0.5738,-0.5738,0,0,0,0,0,0,0,-0.5687,-0.5689,-0.5703,-0.5702,-0.5703,-0.5706,-0.5707,-0.5713,-0.5721,-0.5714,-0.5715,-0.5717,-0.5728,-0.5731,-0.5732,-0.574,-0.5738,-0.5738,-0.5738,-0.5739,-0.5752,-0.5752,0,0,0,0,0,0,-0.5686,-0.5688,-0.5702,-0.5703,-0.5696,-0.5706,-0.5708,-0.5711,-0.5721,-0.5722,-0.5717,-0.5717,-0.573,-0.5732,-0.5733,-0.5737,-0.5738,-0.5739,-0.5739,-0.5752,-0.5752,-0.5752,0,0,0,0,0,0,-0.5685,-0.5687,-0.5702,-0.5696,-0.5698,-0.5706,-0.571,-0.5711,-0.5714,-0.5722,-0.5724,-0.5718,-0.573,-0.5732,-0.5737,-0.5738,-0.5739,-0.574,-0.5752,-0.5752,-0.5752,-0.5746,0,0,0,0,0,0,-0.5684,-0.5687,-0.5687,-0.5696,-0.5698,-0.5706,-0.571,-0.5711,-0.5715,-0.5715,-0.5724,-0.5725,-0.573,-0.5737,-0.5738,-0.5739,-0.574,-0.5752,-0.5752,-0.5752,-0.5746,-0.5746,-0.5746,0,0,0,0,0,-0.5684,-0.5685,-0.5687,-0.5689,-0.5699,-0.5706,-0.5707,-0.5713,-0.5715,-0.5716,-0.5721,-0.5725,-0.5738,-0.5737,-0.5739,-0.574,-0.5752,-0.5752,-0.5752,-0.5746,-0.5746,-0.5746,0,0,0,0,0,0,-0.5676,-0.5686,-0.5689,-0.5693,-0.5698,-0.5707,-0.5709,-0.5712,-0.5718,-0.5718,-0.5726,-0.5727,-0.5732,-0.5737,-0.5736,-0.5744,-0.5745,-0.5746,-0.574,-0.574,-0.574,-0.5739,-0.574,0,0,0,0,0,-0.5674,-0.5679,-0.5687,-0.569,-0.5693,-0.57,-0.5703,-0.5707,-0.5714,-0.5716,-0.5722,-0.5728,-0.5734,-0.5737,-0.5743,-0.5747,-0.575,-0.5749,-0.5749,-0.5748,-0.5748,-0.5752,-0.5752,-0.5752,-0.5752,-0.5752,0,0,-0.5672,-0.5678,-0.568,-0.5689,-0.5693,-0.5698,-0.5702,-0.5706,-0.571,-0.5717,-0.5722,-0.5727,-0.5735,-0.574,-0.5742,-0.5744,-0.5749,-0.5748,-0.5748,-0.5748,-0.5752,-0.5752,-0.5752,-0.5752,-0.5752,-0.5752,0,0,-0.5669,-0.5674,-0.5677,-0.5682,-0.569,-0.5695,-0.5696,-0.5704,-0.5708,-0.5713,-0.5719,-0.5724,-0.5733,-0.5738,-0.5742,-0.5743,-0.5747,-0.5745,-0.5743,-0.5746,-0.5746,-0.5746,-0.5747,-0.5747,-0.5745,-0.5745,-0.5745,0,-0.5665,-0.5671,-0.5678,-0.5682,-0.5686,-0.5693,-0.5697,-0.5701,-0.571,-0.5713,-0.5714,-0.5727,-0.5732,-0.5739,-0.574,-0.5742,-0.5744,-0.5743,-0.5746,-0.5746,-0.5746,-0.5747,-0.5747,-0.5745,-0.5745,-0.5745,-0.5745,0,-0.5666,-0.5671,-0.5672,-0.5681,-0.5685,-0.5689,-0.5697,-0.5701,-0.5705,-0.571,-0.5717,-0.5724,-0.5731,-0.5733,-0.5737,-0.5741,-0.5742,-0.5744,-0.5746,-0.5746,-0.5747,-0.5747,-0.5744,-0.5744,-0.5744,-0.5744,0,0,-0.5658,-0.5671,-0.5672,-0.5676,-0.5686,-0.5689,-0.5694,-0.5702,-0.5705,-0.5711,-0.5716,-0.5724,-0.5727,-0.5731,-0.5736,-0.5739,-0.5741,-0.5742,-0.5742,-0.5742,-0.5747,-0.5745,-0.5745,-0.5743,-0.5744,-0.5744,-0.5746,0,-0.5657,-0.5665,-0.5672,-0.5678,-0.5683,-0.569,-0.5694,-0.5701,-0.5706,-0.5712,-0.5718,-0.5724,-0.5727,-0.573,-0.5733,-0.574,-0.5742,-0.574,-0.5748,-0.5748,-0.5746,-0.5745,-0.5743,-0.5745,-0.5747,-0.5747,-0.5747,0,-0.5656,-0.5663,-0.5669,-0.5679,-0.5682,-0.5685,-0.5693,-0.5698,-0.5706,-0.571,-0.5716,-0.5721,-0.5727,-0.5729,-0.5738,-0.5736,-0.5741,-0.5745,-0.5745,-0.5746,-0.5747,-0.5747,-0.5746,-0.5746,-0.5747,-0.5747,-0.5747,0,-0.565,-0.5661,-0.5666,-0.567,-0.5681,-0.5684,-0.5689,-0.5697,-0.5702,-0.5709,-0.5712,-0.572,-0.5724,-0.573,-0.5738,-0.5738,-0.5747,-0.5749,-0.575,-0.575,-0.5751,-0.5751,-0.5751,-0.5754,-0.5754,-0.5754,-0.5754,0,-0.5648,-0.5652,-0.5664,-0.5667,-0.5672,-0.568,-0.5685,-0.5691,-0.5698,-0.5703,-0.571,-0.5715,-0.5725,-0.5731,-0.5737,-0.5744,-0.5746,-0.575,-0.5751,-0.5749,-0.5749,-0.5752,-0.5752,-0.5754,-0.5754,-0.5754,-0.5754,0,-0.5642,-0.565,-0.5656,-0.5667,-0.567,-0.5673,-0.5683,-0.5687,-0.5693,-0.57,-0.5702,-0.5712,-0.572,-0.5728,-0.5739,-0.5743,-0.575,-0.5752,-0.5747,-0.5748,-0.5749,-0.5749,-0.5752,-0.5753,-0.5754,-0.5754,-0.5754,0,-0.564,-0.5644,-0.5655,-0.5659,-0.5664,-0.567,-0.5675,-0.5683,-0.5688,-0.5698,-0.5701,-0.571,-0.5717,-0.5729,-0.5738,-0.5746,-0.5749,-0.5749,-0.575,-0.5748,-0.575,-0.5749,-0.575,-0.5749,-0.5749,-0.5749,-0.5749,0,-0.5637,-0.5641,-0.5647,-0.5655,-0.5661,-0.5667,-0.5675,-0.5678,-0.5688,-0.5693,-0.5701,-0.5707,-0.5718,-0.5727,-0.5736,-0.5742,-0.5748,-0.5748,-0.5749,-0.5747,-0.5744,-0.5747,-0.5746,-0.5748,-0.5748,-0.5748,-0.5748,-0.5748,-0.5633,-0.5636,-0.5645,-0.5652,-0.5659,-0.5666,-0.567,-0.5677,-0.5684,-0.5694,-0.5699,-0.5707,-0.5717,-0.5731,-0.5736,-0.5744,-0.5745,-0.5746,-0.5747,-0.5747,-0.5747,-0.5743,-0.5745,-0.5745,-0.5746,-0.5746,-0.5746,0,-0.563,-0.5636,-0.5643,-0.5653,-0.5659,-0.5663,-0.5672,-0.5676,-0.5684,-0.5692,-0.5699,-0.5709,-0.5718,-0.5728,-0.5737,-0.5741,-0.5744,-0.5743,-0.5743,-0.5745,-0.5744,-0.5743,-0.5741,-0.5741,-0.5741,-0.5741,-0.5741,-0.5741,-0.5629,-0.5635,-0.5641,-0.5651,-0.5657,-0.5665,-0.567,-0.5677,-0.5684,-0.5694,-0.5702,-0.5708,-0.5717,-0.5728,-0.5736,-0.5739,-0.5742,-0.5741,-0.5745,-0.5744,-0.5745,-0.5745,-0.5744,-0.5742,-0.5742,-0.5745,-0.5745,-0.5745]},{"header":{"parameterUnit":"m.s-1","parameterCategory":1,"la1":30.2991,"la2":30.254,"lo1":-89.0895,"lo2":-89.0444,"dy":0.0017,"dx":0.0017,"nx":28,"ny":28,"refTime":"2025-04-22T09:00:00:Z","depth":0,"parameterNumber":3,"parameterNumberName":"V-component_of_WINDS"},"data":[0,0,0,0,0,0,0,0,0,0,0,0,0,0,0,0,0,0,0,0,0,0,0,0,0,0,0,0,0,0,0,0,0,0,0,0,0,0,0,0,0,0,0,0,0,0,0,0,0,0,0,0,0,0,0,0,0,0,2.7602,2.7602,0,2.7617,2.7617,2.7617,2.7607,2.7607,2.7606,2.7606,2.7619,2.762,2.7621,0,0,0,0,0,0,0,0,0,0,0,0,0,2.7565,2.7566,2.7602,2.7602,2.7602,2.7617,2.7617,2.7617,2.7607,2.7607,2.7606,2.7606,2.7619,2.762,2.7621,0,0,0,0,0,0,0,0,0,0,0,0,0,2.7581,2.7566,2.7602,2.7599,2.7599,2.7616,2.7617,2.7617,2.7607,2.7607,2.7606,2.7605,2.7619,2.762,2.7621,2.7641,0,0,2.7625,2.7625,0,0,0,0,0,0,0,0,2.758,2.7582,2.7599,2.7599,2.7599,2.7609,2.7609,2.7625,2.7608,2.7604,2.7606,2.7605,2.7617,2.7618,2.7622,2.7642,2.7643,2.7625,2.7625,2.7626,2.7626,0,0,0,0,0,0,0,2.7579,2.7581,2.7608,2.76,2.76,2.7597,2.7599,2.7612,2.7614,2.7604,2.7604,2.7606,2.7616,2.7621,2.7622,2.7643,2.7625,2.7626,2.7626,2.7627,2.7682,2.7682,0,0,0,0,0,0,2.7578,2.758,2.7607,2.7608,2.7588,2.7598,2.76,2.7607,2.7614,2.7614,2.7606,2.7605,2.7619,2.7621,2.7623,2.7648,2.7626,2.7627,2.7628,2.7681,2.7682,2.7683,0,0,0,0,0,0,2.7577,2.758,2.7607,2.7594,2.7597,2.76,2.7607,2.7607,2.7612,2.7615,2.7615,2.7611,2.7619,2.7621,2.7637,2.7648,2.7628,2.7629,2.768,2.7681,2.7682,2.7697,0,0,0,0,0,0,2.7576,2.758,2.7588,2.7594,2.7598,2.7621,2.7608,2.7608,2.7614,2.7613,2.7619,2.7619,2.7618,2.7636,2.7638,2.7649,2.7629,2.7679,2.768,2.7682,2.7696,2.7699,2.7701,0,0,0,0,0,2.7575,2.7591,2.7588,2.7592,2.7608,2.7622,2.7624,2.7622,2.7615,2.7623,2.7625,2.7619,2.7646,2.7637,2.764,2.7652,2.7678,2.768,2.7682,2.7694,2.7698,2.7701,0,0,0,0,0,0,2.7584,2.7592,2.7589,2.7607,2.7614,2.762,2.763,2.7626,2.7635,2.7633,2.7631,2.7632,2.7649,2.7652,2.7642,2.7672,2.7661,2.7664,2.767,2.7673,2.7676,2.7675,2.763,0,0,0,0,0,2.7589,2.76,2.7605,2.7621,2.7625,2.7627,2.7633,2.7632,2.7638,2.7641,2.7644,2.765,2.7661,2.7667,2.7676,2.7696,2.7698,2.7706,2.7708,2.7711,2.7713,2.7724,2.7728,2.7688,2.7688,2.7688,0,0,2.7598,2.7603,2.761,2.7623,2.7628,2.764,2.7629,2.7641,2.765,2.7642,2.7658,2.7661,2.7668,2.7687,2.7695,2.7689,2.7724,2.7713,2.7715,2.7715,2.7726,2.773,2.7734,2.7689,2.7689,2.7689,0,0,2.762,2.7625,2.7639,2.7645,2.7653,2.7655,2.7658,2.7665,2.7667,2.7683,2.7678,2.7688,2.7705,2.7711,2.7716,2.7742,2.7738,2.7745,2.776,2.7771,2.7774,2.7777,2.7787,2.779,2.7747,2.7747,2.7748,0,2.763,2.7647,2.7647,2.766,2.7667,2.7662,2.7676,2.7682,2.7692,2.7697,2.7691,2.7713,2.7717,2.7737,2.7744,2.7748,2.7752,2.7744,2.7774,2.7777,2.7779,2.7789,2.7792,2.7748,2.7748,2.7748,2.7748,0,2.7659,2.7672,2.7682,2.7694,2.7701,2.7715,2.7717,2.7725,2.7724,2.7726,2.7743,2.7748,2.7759,2.7763,2.7762,2.7784,2.778,2.7774,2.7763,2.7784,2.7793,2.7796,2.775,2.7749,2.7749,2.7749,0,0,2.7686,2.7699,2.7703,2.7709,2.7718,2.7728,2.7742,2.7753,2.776,2.7768,2.778,2.7796,2.7791,2.7796,2.7795,2.7805,2.7827,2.7798,2.7798,2.7804,2.7852,2.7857,2.7861,2.7824,2.7825,2.7825,2.7852,0,2.7709,2.7734,2.7735,2.7758,2.777,2.7766,2.7779,2.7786,2.7789,2.7799,2.7802,2.7814,2.7806,2.7809,2.7819,2.7822,2.7837,2.782,2.7835,2.7836,2.7833,2.7866,2.787,2.7895,2.7855,2.7856,2.7856,0,2.7739,2.7749,2.7774,2.7783,2.7788,2.7799,2.7811,2.7821,2.7829,2.7831,2.7838,2.7836,2.7851,2.784,2.786,2.7849,2.7855,2.7858,2.7859,2.786,2.7847,2.7868,2.7903,2.7907,2.7862,2.7861,2.7861,0,2.7757,2.7777,2.7795,2.78,2.7811,2.7819,2.7824,2.7832,2.7839,2.7849,2.7854,2.7865,2.7871,2.788,2.7881,2.7873,2.7902,2.7891,2.7904,2.7904,2.7909,2.7909,2.7946,2.7913,2.7913,2.7913,2.7913,0,2.7783,2.7798,2.7803,2.7814,2.7831,2.7832,2.7849,2.7853,2.7861,2.7872,2.787,2.7881,2.7882,2.7893,2.7894,2.7911,2.7914,2.7915,2.7915,2.7915,2.7915,2.7919,2.7918,2.7914,2.7914,2.7914,2.7914,0,2.7805,2.7809,2.7828,2.7838,2.7841,2.7853,2.7862,2.7872,2.7875,2.789,2.7894,2.7898,2.7912,2.7914,2.7929,2.793,2.7951,2.7949,2.7948,2.7948,2.7961,2.796,2.8002,2.8007,2.7971,2.7971,2.7972,0,2.7821,2.7833,2.7845,2.7853,2.7859,2.7871,2.7879,2.7882,2.789,2.7902,2.7911,2.7924,2.7935,2.7956,2.7961,2.7973,2.7971,2.7985,2.7973,2.7973,2.7972,2.7971,2.7973,2.7987,2.7988,2.7988,2.7988,0,2.7849,2.7851,2.7863,2.7877,2.7887,2.7897,2.7906,2.7913,2.7916,2.7926,2.794,2.7949,2.7965,2.7978,2.7991,2.7996,2.7993,2.7992,2.7996,2.7996,2.7996,2.7997,2.7954,2.7991,2.7991,2.7991,2.7991,2.799,2.7869,2.788,2.7891,2.7904,2.7912,2.7922,2.7933,2.7938,2.795,2.7964,2.7965,2.798,2.799,2.8006,2.8012,2.8024,2.802,2.8025,2.8026,2.8027,2.8029,2.7994,2.8026,2.8026,2.8026,2.8026,2.8026,0,2.7897,2.7905,2.7917,2.7932,2.7943,2.7941,2.7952,2.7961,2.7975,2.7985,2.7996,2.8012,2.8026,2.8032,2.8045,2.8054,2.8053,2.8057,2.8057,2.8058,2.8032,2.8028,2.8058,2.8058,2.8058,2.8058,2.8058,2.8058,2.7914,2.7932,2.7936,2.7959,2.7965,2.7982,2.7988,2.7997,2.8005,2.8024,2.8036,2.804,2.8049,2.8063,2.8075,2.8076,2.8081,2.8086,2.8087,2.8063,2.806,2.8057,2.8053,2.8087,2.8088,2.8112,2.8113,2.8113]}]]